GEOSCAN 4 (RS92S4)

Last updated on Mon Nov 03 2025 00:03:22 GMT+0000 (Coordinated Universal Time)

1 64892U 25155S 25306.46451843 .00015745 00000+0 62469-3 0 9999 2 64892 97.4280 270.6192 0004291 269.9388 90.1358 15.25441285 46169
UTC large
Height (km)
Speed (km/s)
/
Latitude / Longitude
Inclination (degrees)
Orbital Period (minutes)
Azimuth
Elevation
Range (km)
Doppler Factor

Next 0 passes for location: London (51.5072 / 0.1276)

Sorry there are no passes over London.